N0YUV Weather Reports


time (UTC)temp
C
wind
direction
speed
KPH
gust
KPH
rain 1hr
cm
rain 24hr
cm
rain mn
cm
humidity
%
barometer
mb
20260906190023 28 152 0.0 0.0 0.00 0.00 0.00 79 1014.0
20260906184522 28 152 0.0 0.0 0.00 0.00 0.00 80 1014.1
20260906183020 28 152 0.0 0.0 0.00 0.00 0.00 81 1014.2
20260906181515 28 154 0.0 0.0 0.00 0.00 0.00 84 1013.9
20260906180014 27 153 0.0 0.0 0.00 0.00 0.00 85 1014.0
20260906174510 27 153 0.0 0.0 0.00 0.00 0.00 87 1014.4
20260906173005 26 153 0.0 0.0 0.00 0.00 0.00 88 1014.2
20260906171503 26 153 0.0 0.0 0.00 0.00 0.00 89 1014.3
20260906170106 26 154 0.0 0.0 0.00 0.00 0.00 91 1014.4
20260906164559 25 155 0.0 0.0 0.00 0.00 0.00 92 1014.5
20260906163100 25 155 0.0 0.0 0.00 0.00 0.00 92 1014.4
20260906161555 25 155 0.0 0.0 0.00 0.00 0.00 92 1014.4
20260906160050 25 156 0.0 0.0 0.00 0.00 0.00 92 1014.4
20260906154550 24 156 0.0 0.0 0.00 0.00 0.00 92 1014.7
20260906153107 24 157 0.0 0.0 0.00 0.00 0.00 91 1014.9
20260906151551 24 157 0.0 0.0 0.00 0.00 0.00 91 1014.9
20260906150038 24 156 0.0 0.0 0.00 0.00 0.00 91 1014.8
20260906144543 24 155 0.0 0.0 0.00 0.00 0.00 91 1015.0
20260906143043 24 155 0.0 0.0 0.00 0.00 0.00 91 1015.2
20260906141538 25 155 0.0 0.0 0.00 0.00 0.00 91 1015.2
20260906140035 24 155 0.0 0.0 0.00 0.00 0.00 91 1014.8
20260906134531 24 155 0.0 0.0 0.00 0.00 0.00 91 1014.0
20260906133031 24 155 0.0 0.0 0.00 0.00 0.00 91 1014.0
20260906131529 24 155 0.0 0.0 0.00 0.00 0.00 91 1013.9
20260906130029 24 156 0.0 0.0 0.00 0.00 0.00 91 1013.9
20260906124526 23 156 0.0 0.0 0.00 0.00 0.00 91 1013.9
20260906123037 23 155 0.0 0.0 0.00 0.00 0.00 91 1013.7
20260906121521 23 155 0.0 0.0 0.00 0.00 0.00 91 1013.6
20260906120017 23 156 0.0 0.0 0.00 0.00 0.00 91 1013.5
20260906114516 23 156 0.0 0.0 0.00 0.00 0.00 91 1013.5
20260906113016 23 156 0.0 0.0 0.00 0.00 0.00 91 1013.3
20260906111514 23 156 0.0 0.0 0.00 0.00 0.00 90 1013.1
20260906110016 23 156 0.0 0.0 0.00 0.00 0.00 91 1013.0
20260906104512 23 157 0.0 0.0 0.00 0.00 0.00 90 1013.4
20260906103012 23 157 0.0 0.0 0.00 0.00 0.00 90 1013.3
20260906101521 24 157 0.0 0.0 0.00 0.00 0.00 90 1013.3
20260906100010 24 157 0.0 0.0 0.00 0.00 0.00 90 1013.0
20260906094510 24 157 0.0 0.0 0.00 0.00 0.00 90 1012.9
20260906093013 24 157 0.0 0.0 0.00 0.00 0.00 89 1012.9
20260906091507 24 157 0.0 0.0 0.00 0.00 0.00 89 1013.0
20260906090015 24 156 0.0 0.0 0.00 0.00 0.00 89 1013.1
20260906084505 24 156 0.0 0.0 0.00 0.00 0.00 89 1013.3
20260906083005 25 156 0.0 0.0 0.00 0.00 0.00 89 1013.3
20260906081503 25 156 0.0 0.0 0.00 0.00 0.00 89 1013.0
20260906080000 25 156 0.0 0.0 0.00 0.00 0.00 89 1013.1
20260906074610 25 156 0.0 0.0 0.00 0.00 0.00 89 1013.0
20260906073111 25 156 0.0 0.0 0.00 0.00 0.00 89 1012.8
20260906071557 25 156 0.0 0.0 0.00 0.00 0.00 88 1012.8
20260906070056 25 155 0.0 0.0 0.00 0.00 0.00 88 1012.6
20260906064553 25 156 0.0 0.0 0.00 0.00 0.00 88 1012.8
20260906063052 26 156 0.0 0.0 0.00 0.00 0.00 88 1012.8
20260906061550 26 156 0.0 0.0 0.00 0.00 0.00 88 1012.9
20260906060049 26 156 0.0 0.0 0.00 0.00 0.00 88 1013.1
20260906054549 26 156 0.0 0.0 0.00 0.00 0.00 88 1013.1
20260906053046 26 156 0.0 0.0 0.00 0.00 0.00 88 1013.1
20260906051555 26 157 0.0 0.0 0.00 0.00 0.00 88 1012.9
20260906050041 26 157 0.0 0.0 0.00 0.00 0.00 88 1013.0
20260906044545 26 157 0.0 0.0 0.00 0.00 0.00 87 1013.0
20260906043047 26 157 0.0 0.0 0.00 0.00 0.00 87 1013.0
20260906041536 26 157 0.0 0.0 0.00 0.00 0.00 86 1013.1
20260906040038 26 157 0.0 0.0 0.00 0.00 0.00 86 1013.1
20260906034540 26 157 0.0 0.0 0.00 0.00 0.00 85 1013.3
20260906033035 27 157 0.0 0.0 0.00 0.00 0.00 84 1013.0
20260906031539 27 157 0.0 0.0 0.00 0.00 0.00 84 1013.0
20260906030033 27 156 0.0 0.0 0.00 0.00 0.00 83 1012.8
20260906024533 27 156 0.0 0.0 0.00 0.00 0.00 83 1012.6
20260906023033 27 156 0.0 0.0 0.00 0.00 0.00 82 1012.6
20260906021532 28 157 0.0 0.0 0.00 0.00 0.00 81 1012.3
20260906020032 28 157 0.0 0.0 0.00 0.00 0.00 79 1012.0
20260906014534 28 156 0.0 0.0 0.00 0.00 0.00 78 1011.8
20260906013052 29 156 0.0 0.0 0.00 0.00 0.00 77 1011.5
20260906011530 29 155 0.0 0.0 0.00 0.00 0.00 76 1011.4
20260906010031 30 155 0.0 0.0 0.00 0.00 0.00 74 1011.4
20260906004530 30 155 0.0 0.0 0.00 0.00 0.00 73 1011.2
20260906003029 31 155 0.0 0.0 0.00 0.00 0.00 72 1011.3
20260906001528 31 155 0.0 0.0 0.00 0.00 0.00 71 1011.1
20260906000028 31 155 0.0 0.0 0.00 0.00 0.00 70 1010.9
20260905234527 31 155 0.0 0.0 0.00 0.00 0.00 69 1010.9
20260905233033 31 154 0.0 0.0 0.00 0.00 0.00 68 1010.8
20260905231528 31 155 0.0 0.0 0.00 0.00 0.00 67 1010.7
20260905230027 31 154 0.0 0.0 0.00 0.00 0.00 66 1010.5
20260905224525 32 153 0.0 0.0 0.00 0.00 0.00 65 1010.6
20260905223024 32 153 0.0 0.0 0.00 0.00 0.00 65 1010.6
20260905221524 32 153 0.0 0.0 0.00 0.00 0.00 64 1010.5
20260905220023 32 153 0.0 0.0 0.00 0.00 0.00 63 1010.5
20260905214526 32 156 0.0 0.0 0.00 0.00 0.00 63 1010.7
20260905213021 31 157 0.0 0.0 0.00 0.00 0.00 64 1010.7
20260905211519 31 156 0.0 0.0 0.00 0.00 0.00 63 1010.8
20260905210028 31 156 0.0 0.0 0.00 0.00 0.00 64 1010.9
20260905204516 31 155 0.0 0.0 0.00 0.00 0.00 64 1011.0
20260905203017 31 155 0.0 0.0 0.00 0.00 0.00 64 1011.3
20260905201514 31 155 0.0 0.0 0.00 0.00 0.00 65 1011.8
20260905200012 31 155 0.0 0.0 0.00 0.00 0.00 65 1012.1
20260905194507 30 155 0.0 0.0 0.00 0.00 0.00 66 1012.5
20260905193007 30 151 0.0 0.0 0.00 0.00 0.00 67 1012.8
20260905191505 30 154 0.0 0.0 0.00 0.00 0.00 65 1013.4